Date,TemperatureHighF,TemperatureAvgF,TemperatureLowF,DewpointHighF,DewpointAvgF,DewpointLowF,HumidityHigh,HumidityAvg,HumidityLow,PressureMaxIn,PressureMinIn,WindSpeedMaxMPH,WindSpeedAvgMPH,GustSpeedMaxMPH,PrecipitationSumIn
2013-1-1,30,24,11,26,16,5,84,74,59,29.45,29.29,10,5,31,0.00
2013-1-2,24,16,7,16,11,4,92,80,60,29.62,29.43,6,2,15,0.00
2013-1-3,31,18,8,21,10,-2,91,71,42,29.63,29.48,5,2,14,0.00
2013-1-4,41,29,25,23,19,16,87,68,43,29.50,29.39,8,3,21,0.00
2013-1-5,34,26,14,24,20,13,100,79,61,29.77,29.44,12,4,34,0.13
2013-1-6,44,31,18,30,26,18,100,80,56,29.69,29.46,4,2,13,0.00
2013-1-7,42,28,14,30,22,14,97,79,39,29.87,29.54,7,2,17,0.00
2013-1-8,50,29,16,31,20,12,92,72,34,29.90,29.76,4,1,14,0.00
2013-1-9,47,32,0,37,25,15,97,72,51,29.89,29.56,11,3,32,0.05
2013-1-10,42,34,26,28,24,22,90,67,49,30.07,29.68,16,5,44,1.18
2013-1-11,38,17,0,38,23,20,99,64,88,30.04,28.13,2,0,4,10.08
2013-1-12,69,46,0,63,44,26,99,78,64,29.94,29.66,1,0,2,3.06
2013-1-15,40,31,25,22,20,18,77,65,46,30.06,29.96,6,4,10,0.00
2013-1-16,33,28,27,20,18,16,75,64,55,30.02,29.96,10,4,18,0.00
2013-1-17,30,28,27,24,22,21,83,78,73,30.27,30.03,12,7,23,0.13
2013-1-18,32,29,19,24,21,16,87,72,62,30.34,30.26,7,3,12,0.00
2013-1-19,25,18,14,24,17,13,100,97,91,30.31,30.21,2,0,2,0.00
2013-1-20,34,28,27,27,25,23,96,88,74,30.18,30.10,3,2,5,0.00
2013-1-21,40,33,17,27,24,14,88,70,59,30.11,29.91,4,1,7,0.13
2013-1-25,40,32,26,22,20,17,77,61,46,30.58,30.48,6,3,10,0.00
2013-1-26,29,28,27,23,19,16,83,69,61,30.58,30.49,10,6,18,0.01
2013-1-27,30,29,28,24,23,21,81,77,73,30.84,30.59,12,7,23,0.12
2013-1-28,32,26,15,22,18,14,95,75,62,30.86,30.78,6,2,9,0.00
2013-1-29,27,20,14,26,20,13,100,97,92,30.80,30.68,2,1,4,0.00
2013-1-30,39,31,27,27,25,23,92,80,62,30.67,30.60,3,2,5,0.00
2013-1-31,41,29,21,27,11,2,66,46,36,30.59,29.93,11,6,34,0.11
2013-2-1,23,17,13,14,4,-2,82,56,43,30.71,30.26,8,5,24,0.01
2013-2-2,29,17,10,10,4,1,75,58,31,30.76,30.58,6,2,19,0.00
2013-2-3,26,16,9,15,10,5,91,78,54,30.60,30.36,3,1,7,0.00
2013-2-4,21,16,13,14,6,0,93,65,41,30.51,30.36,8,3,21,0.00
2013-2-5,31,18,12,19,12,7,90,77,52,30.56,30.47,3,1,8,0.00
2013-2-6,33,23,14,20,11,-6,93,61,34,30.92,30.48,8,3,21,0.00
2013-2-7,29,18,9,10,4,-1,68,54,36,31.04,30.89,4,2,13,0.00
2013-2-8,25,22,19,25,20,8,100,91,58,30.92,30.38,5,3,17,0.00
2013-2-9,25,17,9,19,9,0,100,73,39,30.90,30.42,9,5,25,0.05
2013-2-10,39,18,3,12,3,-6,81,53,21,31.03,30.84,7,2,15,0.02
2013-2-11,53,36,29,44,28,-1,100,78,23,30.84,30.30,7,2,27,0.11
2013-2-12,34,31,27,29,24,17,81,73,65,30.56,30.33,10,5,26,0.21
2013-2-13,46,31,26,24,20,18,78,65,39,30.54,30.34,5,2,17,0.00
2013-2-14,50,30,18,26,20,14,89,68,37,30.58,30.34,4,1,13,0.00
2013-2-15,53,38,29,29,25,21,95,62,34,30.61,30.53,7,2,24,0.00
2013-2-16,37,24,18,28,16,7,97,72,45,30.61,30.40,6,2,14,0.01
2013-2-17,22,14,7,9,-1,-5,66,51,33,30.46,30.26,15,8,36,0.00
2013-2-18,33,16,5,6,0,-4,67,51,25,30.76,30.46,13,5,35,0.00
2013-2-19,43,29,14,33,22,6,100,78,44,30.72,30.27,6,2,22,0.00
2013-2-20,28,21,16,28,10,3,100,65,44,30.49,30.29,9,6,28,0.07
2013-2-21,24,16,14,12,8,6,88,70,51,30.93,30.46,11,6,26,0.00
2013-2-22,36,25,15,23,18,12,95,76,54,30.98,30.83,8,2,21,0.00
2013-2-23,37,32,28,35,31,23,100,95,80,30.83,30.50,5,2,21,0.02
2013-2-24,40,31,25,35,28,20,100,89,65,30.59,30.40,5,1,14,0.06
2013-2-25,42,31,25,27,24,20,93,77,47,30.85,30.59,4,1,14,0.00
2013-2-26,43,29,16,31,23,17,100,81,53,30.90,30.62,6,2,17,0.00
2013-2-27,36,32,26,36,32,26,99,99,99,30.63,30.20,7,3,17,0.67
2013-2-28,42,34,31,38,31,25,100,89,63,30.26,30.21,4,1,11,0.20
2013-3-1,39,31,25,26,24,22,87,77,54,30.41,30.25,7,4,19,0.01
2013-3-2,34,25,19,23,20,16,90,81,59,30.41,30.34,7,4,15,0.00
2013-3-3,26,20,16,20,15,11,86,79,65,30.38,30.30,8,5,21,0.00
2013-3-4,30,22,18,20,17,14,93,81,63,30.52,30.36,12,7,33,0.04
2013-3-5,46,30,22,27,23,20,93,78,46,30.68,30.52,7,3,21,0.00
2013-3-6,34,31,28,33,27,22,100,86,75,30.71,30.61,9,4,25,0.00
2013-3-7,31,28,26,28,25,21,100,90,78,30.74,30.67,6,3,21,0.00
2013-3-8,39,30,24,35,27,22,100,89,54,30.89,30.67,6,3,18,0.09
2013-3-9,60,36,22,27,20,12,87,60,18,30.97,30.86,5,2,11,0.00
2013-3-10,60,38,20,30,24,16,90,61,29,30.97,30.84,4,1,12,0.00
2013-3-11,52,42,30,43,31,21,100,66,34,30.86,30.67,6,2,27,0.00
2013-3-12,50,44,33,50,43,31,100,97,89,30.68,30.36,7,3,28,2.22
2013-3-13,45,34,27,31,24,19,91,70,40,30.50,30.42,9,2,18,0.00
2013-3-14,27,21,16,23,10,6,90,64,53,30.50,30.42,10,5,29,0.06
2013-3-15,36,26,17,27,16,5,90,66,38,30.52,30.31,12,4,25,0.02
2013-3-16,40,26,17,23,16,9,84,67,31,30.51,30.38,9,2,23,0.00
2013-3-17,35,23,14,17,8,4,85,57,28,30.90,30.51,8,3,21,0.00
2013-3-18,33,20,6,22,9,0,100,67,29,30.98,30.66,4,2,10,0.00
2013-3-19,39,28,22,38,28,21,100,98,88,30.66,30.33,5,1,13,0.01
2013-3-20,37,25,19,21,17,14,95,74,48,30.45,30.39,5,0,16,0.04
2013-3-21,42,20,5,19,10,1,100,69,29,30.43,30.25,7,1,13,0.06
2013-3-22,35,24,13,21,16,8,92,72,54,30.43,30.29,8,3,21,0.00
2013-3-23,40,30,25,23,18,14,87,64,41,30.51,30.39,10,6,31,0.02
2013-3-24,46,32,24,24,20,17,78,63,40,30.54,30.39,9,3,18,0.00
2013-3-25,43,32,25,26,23,20,82,68,51,30.40,30.16,6,2,17,0.00
2013-3-26,47,34,28,34,25,18,89,72,40,30.50,30.26,6,2,14,0.01
2013-3-27,49,35,23,28,22,18,90,62,34,30.59,30.49,7,3,19,0.00
2013-3-28,41,38,33,33,30,27,88,75,68,30.75,30.64,8,3,16,0.00
2013-3-29,47,36,31,30,28,26,84,71,48,30.77,30.71,6,3,15,0.00
2013-3-30,56,39,25,29,24,18,93,61,27,30.78,30.71,6,2,16,0.00
2013-3-31,48,36,23,37,28,20,100,77,42,30.77,30.36,5,1,17,0.37
2013-4-1,53,37,24,43,30,11,99,77,44,30.50,30.27,9,4,28,0.02
2013-4-2,35,26,20,16,11,8,70,55,34,30.56,30.47,8,5,24,0.00
2013-4-3,37,30,21,17,13,10,78,50,38,30.88,30.65,9,6,27,0.01
2013-4-4,58,37,22,24,18,11,79,49,24,30.94,30.65,8,3,19,0.00
2013-4-5,55,40,27,25,18,4,72,42,24,30.64,30.43,8,3,27,0.01
2013-4-6,53,33,22,21,10,0,79,42,15,30.91,30.58,9,3,23,0.00
2013-4-7,61,44,27,39,24,9,79,47,28,30.88,30.60,6,2,21,0.00
2013-4-8,62,49,34,42,38,31,100,67,45,30.76,30.64,5,2,13,0.00
2013-4-9,70,57,47,51,46,39,100,68,40,30.71,30.56,7,3,25,0.05
2013-4-10,56,49,43,53,48,41,100,96,81,30.70,30.52,3,1,11,0.40
2013-4-11,48,40,32,48,35,20,100,85,50,30.74,30.53,5,2,14,0.06
2013-4-12,35,33,32,35,33,31,99,99,99,30.73,30.41,4,1,13,0.54
2013-4-13,50,40,33,42,35,32,99,82,57,30.60,30.44,4,1,11,0.02
2013-4-14,46,37,26,35,28,22,100,71,46,30.87,30.58,6,2,20,0.00
2013-4-15,66,43,26,40,31,24,100,67,37,30.98,30.85,4,1,11,0.00
2013-4-16,58,50,42,56,46,30,100,84,60,30.97,30.76,8,2,25,0.24
2013-4-17,66,49,33,55,36,30,100,66,32,30.99,30.80,6,3,16,0.04
2013-4-18,61,47,31,51,38,30,100,75,42,30.99,30.75,6,2,20,0.00
2013-4-19,66,59,51,60,56,51,100,93,75,30.76,30.30,6,3,27,0.80
2013-4-20,54,42,30,52,31,18,100,68,38,30.92,30.36,7,3,19,0.28
2013-4-21,53,36,25,24,19,15,78,54,30,31.26,30.92,8,3,20,0.00
2013-4-22,57,40,25,31,24,19,84,57,29,31.30,31.12,5,2,13,0.00
2013-4-23,47,37,28,40,33,26,100,88,75,31.13,30.79,5,1,10,0.00
2013-4-24,76,51,27,54,42,27,99,76,43,30.80,30.46,4,2,17,0.00
2013-4-25,64,46,31,55,31,23,96,60,26,30.93,30.47,7,3,23,0.08
2013-4-26,63,44,28,36,31,26,95,65,30,31.09,30.92,5,2,14,0.00
2013-4-27,68,47,26,36,30,17,97,58,23,31.10,30.96,5,1,11,0.00
2013-4-28,71,53,32,44,37,30,93,58,32,30.98,30.84,5,1,11,0.00
2013-4-29,54,50,46,48,43,33,100,79,51,30.89,30.85,6,0,19,0.02
2013-4-30,74,55,42,50,43,28,97,67,33,30.98,30.86,2,0,11,0.01
2013-5-1,76,51,35,46,37,32,100,65,23,31.13,30.98,2,0,11,0.00
2013-5-2,82,59,36,47,41,34,100,58,26,31.13,30.99,3,0,16,0.00
2013-5-3,72,56,42,45,36,30,78,49,27,31.11,31.02,4,0,16,0.00
2013-5-4,76,56,36,50,42,35,100,64,33,31.04,30.89,4,1,11,0.00
2013-5-5,74,53,33,42,36,30,100,59,22,30.94,30.86,3,0,9,0.00
2013-5-6,74,53,31,50,42,31,100,71,40,30.92,28.16,3,0,10,0.00
2013-5-7,79,60,41,56,49,41,100,73,35,30.86,30.77,3,0,11,0.00
2013-5-8,60,57,51,60,57,51,100,99,94,30.84,30.70,3,0,11,0.41
2013-5-9,67,55,46,58,53,45,100,92,72,30.72,30.60,2,0,7,0.02
2013-5-10,76,60,42,62,54,42,100,82,54,30.70,30.58,2,0,10,0.00
2013-5-11,70,60,54,64,58,53,100,95,67,30.59,30.41,2,0,11,0.57
2013-5-12,62,51,39,53,41,24,100,73,32,30.53,30.37,7,1,18,0.04
2013-5-13,51,39,30,32,27,23,93,62,42,30.74,30.53,4,1,18,0.00
2013-5-14,60,43,30,31,27,21,96,60,26,30.76,30.68,3,0,17,0.00
2013-5-15,67,47,29,54,42,27,100,83,56,30.73,30.36,3,0,15,0.06
2013-5-16,80,64,47,52,41,34,100,46,27,30.58,30.43,9,2,21,0.00
2013-5-17,72,56,43,44,40,34,90,59,36,30.91,30.58,4,1,17,0.00
2013-5-18,70,54,36,52,45,36,100,73,44,30.97,30.90,1,0,8,0.00
2013-5-19,58,54,51,56,53,44,100,94,75,30.97,30.82,2,0,20,0.02
2013-5-20,82,66,52,73,62,52,100,89,66,30.83,30.68,3,0,10,0.00
2013-5-21,92,71,54,78,66,54,100,86,46,30.70,30.54,2,0,12,0.00
2013-5-22,87,71,60,76,68,60,100,91,61,30.61,30.54,5,0,18,0.21
2013-5-23,75,66,56,68,62,56,100,85,62,30.59,30.53,3,0,14,0.00
2013-5-24,57,42,36,57,41,35,100,99,96,30.65,30.44,6,3,17,0.59
2013-5-25,43,39,36,43,39,36,100,99,96,30.64,30.57,7,4,30,1.07
2013-5-26,53,44,36,44,39,35,100,82,55,30.84,30.55,8,4,28,0.06
2013-5-27,75,52,33,44,38,32,100,67,29,30.89,30.82,7,1,23,0.00
2013-5-28,68,52,36,57,47,36,100,86,39,30.90,30.80,1,0,11,0.07
2013-5-29,86,66,53,75,62,52,100,91,59,30.82,30.69,6,0,17,1.11
2013-5-30,91,73,57,74,66,56,100,82,47,30.85,30.78,3,0,13,0.01
2013-5-31,94,74,58,78,66,57,100,81,43,30.88,30.72,2,0,11,0.00
2013-6-1,94,75,57,80,68,56,100,80,47,30.74,30.62,3,0,11,0.00
2013-6-2,88,74,64,76,70,64,100,88,63,30.63,30.48,4,0,13,0.05
2013-6-3,78,64,50,68,58,46,100,83,51,30.64,30.55,4,0,17,0.02
2013-6-4,73,57,45,46,42,36,84,59,30,30.84,30.64,8,2,21,0.00
2013-6-5,79,58,39,55,47,38,100,69,40,30.90,30.80,3,0,9,0.00
2013-6-6,72,57,48,58,53,48,100,87,60,30.85,30.73,2,0,13,0.25
2013-6-7,55,53,52,55,53,51,99,99,99,30.73,30.46,3,0,12,0.99
2013-6-8,77,60,52,64,57,51,100,91,60,30.77,30.41,4,0,13,0.25
2013-6-9,82,63,47,66,56,47,100,81,48,30.91,30.77,6,0,15,0.00
2013-6-10,61,56,50,60,56,50,99,99,99,30.92,30.58,2,0,8,1.04
2013-6-11,75,62,56,71,61,56,100,98,80,30.59,30.33,6,1,20,0.40
2013-6-12,74,60,50,58,54,49,100,84,51,30.59,30.38,8,2,26,0.02
2013-6-13,55,51,46,55,51,46,99,99,99,30.57,30.35,4,1,15,0.96
2013-6-14,73,56,47,61,54,46,100,95,61,30.62,30.36,4,1,15,0.13
2013-6-15,79,63,47,55,51,47,100,72,40,30.71,30.62,5,1,16,0.01
2013-6-16,72,60,45,65,56,45,99,88,62,30.71,30.47,3,0,14,0.00
2013-6-17,85,66,53,67,59,53,100,83,41,30.67,30.56,5,0,13,0.14
2013-6-18,74,60,49,70,58,49,100,96,81,30.67,30.60,2,0,8,0.17
2013-6-19,77,59,45,52,48,43,100,70,38,30.89,30.66,3,0,13,0.00
2013-6-20,82,60,41,66,54,40,100,82,52,30.95,30.89,3,0,8,0.00
2013-6-21,82,66,50,73,63,50,100,90,69,30.99,30.93,2,0,9,0.00
2013-6-22,88,70,54,72,64,54,100,83,55,30.95,30.82,2,0,10,0.00
2013-6-23,95,78,64,80,71,64,100,82,51,30.87,30.76,3,0,12,0.00
2013-6-24,94,75,61,81,70,60,100,86,52,30.79,30.69,5,0,17,0.09
2013-6-25,90,73,59,76,68,59,100,85,56,30.74,30.53,4,0,16,0.01
2013-6-26,86,71,60,75,68,60,100,91,63,30.59,30.53,3,0,13,0.00
2013-6-27,87,70,57,78,68,57,100,91,68,30.58,30.30,3,0,11,0.35
2013-6-28,85,71,63,73,68,63,99,89,65,30.30,30.17,10,1,24,1.63
2013-6-29,82,68,56,73,65,55,100,90,67,30.45,30.24,2,0,10,0.01
2013-6-30,89,68,58,77,66,58,99,93,63,30.66,30.45,1,0,6,0.37
2013-7-1,78,68,61,78,67,60,100,99,96,30.76,30.65,1,0,8,0.63
2013-7-2,84,73,67,80,72,67,100,98,84,30.88,30.75,4,0,8,0.17
2013-7-3,86,74,67,80,72,66,100,95,75,30.93,30.86,2,0,11,0.00
2013-7-4,91,77,63,81,72,63,100,87,63,30.95,30.86,2,0,13,0.00
2013-7-5,94,79,69,83,76,69,100,89,62,30.92,30.81,3,0,9,0.00
2013-7-6,92,78,67,77,72,67,100,84,58,30.86,30.78,3,0,14,0.00
2013-7-7,91,76,65,85,74,65,100,94,71,30.82,30.66,2,0,7,0.00
2013-7-8,91,74,67,78,70,67,100,90,60,30.79,30.69,3,0,11,0.20
2013-7-9,90,73,63,80,71,63,100,94,66,30.82,30.73,2,0,5,0.01
2013-7-10,87,74,64,79,72,64,100,95,74,30.74,30.54,1,0,8,0.04
2013-7-11,84,72,62,72,66,61,100,83,51,30.72,30.53,3,1,12,0.01
2013-7-12,82,69,60,71,65,59,100,86,63,30.90,30.71,4,0,11,0.00
2013-7-13,79,66,59,78,66,59,100,98,85,31.02,30.89,1,0,5,0.37
2013-7-14,93,75,62,82,72,61,100,91,61,31.06,30.98,2,0,11,0.00
2013-7-15,93,78,66,78,72,66,100,84,54,31.00,30.92,3,1,13,0.00
2013-7-16,94,76,62,75,70,62,100,82,49,30.98,30.92,4,1,11,0.00
2013-7-17,97,78,63,83,72,63,100,82,49,30.97,30.81,3,0,9,0.00
2013-7-18,96,80,69,81,74,69,100,85,55,30.82,30.72,4,1,12,0.00
2013-7-19,96,80,64,82,73,64,99,80,53,30.74,30.53,4,1,18,0.00
2013-7-20,87,75,63,76,70,62,100,87,64,30.62,30.49,4,1,13,0.00
2013-7-21,84,70,55,74,65,55,100,87,53,30.73,30.61,2,0,8,0.00
2013-7-22,81,73,68,76,71,67,99,94,76,30.43,30.35,2,1,5,3.84
2013-7-23,79,66,62,79,66,62,99,99,85,30.40,30.34,0,0,2,3.86
2013-7-24,78,65,54,66,60,51,99,85,54,30.73,30.39,6,2,17,0.01
2013-7-25,77,61,50,64,55,47,100,82,61,30.80,30.72,3,1,10,0.00
2013-7-26,81,64,53,69,60,53,100,87,56,30.79,30.73,4,1,10,0.00
2013-7-27,86,67,50,74,62,50,100,84,56,30.77,30.69,2,0,10,0.00
2013-7-28,70,65,61,70,65,61,100,99,93,30.72,30.66,2,0,11,0.34
2013-7-29,86,67,54,72,63,54,100,87,48,30.84,30.68,3,0,9,0.00
2013-7-30,81,62,50,66,58,50,100,87,56,30.89,30.82,3,0,11,0.00
2013-7-31,80,64,50,71,60,50,100,89,64,30.89,30.76,3,0,7,0.00
2013-8-1,74,62,55,71,62,55,100,99,88,30.76,30.57,3,1,15,0.20
2013-8-2,82,67,56,68,61,55,100,85,48,30.64,30.55,4,1,11,0.17
2013-8-3,81,66,53,65,59,53,100,81,49,30.62,30.56,4,1,15,0.01
2013-8-4,76,62,50,62,55,50,99,82,48,30.70,30.59,5,1,22,0.01
2013-8-5,78,61,48,55,51,46,100,74,38,30.78,30.67,5,1,17,0.00
2013-8-6,80,61,43,65,55,43,99,83,55,30.83,30.78,2,0,11,0.00
2013-8-7,71,64,61,69,63,59,100,97,88,30.85,30.77,2,0,9,0.07
2013-8-8,87,72,63,79,70,62,100,96,74,30.77,30.70,2,0,11,0.04
2013-8-9,77,71,67,77,71,67,99,99,99,30.72,30.54,2,0,11,1.28
2013-8-10,80,67,51,67,60,50,100,82,53,30.78,30.61,5,1,16,0.00
2013-8-11,80,64,50,68,59,49,100,86,57,30.84,30.75,2,0,7,0.00
2013-8-12,80,64,52,71,60,52,100,88,57,30.78,30.66,2,0,9,0.00
2013-8-13,81,66,58,76,64,58,100,96,75,30.66,30.42,4,0,11,0.24
2013-8-14,70,58,50,59,53,49,100,85,62,30.74,30.48,5,2,21,0.01
2013-8-15,76,58,47,57,52,47,100,83,49,30.86,30.74,3,0,13,0.00
2013-8-16,83,60,46,68,55,46,100,86,55,30.94,30.84,3,0,8,0.00
2013-8-17,85,62,47,69,57,47,100,86,55,31.01,30.93,2,0,6,0.00
2013-8-18,75,62,52,69,60,52,100,93,74,31.00,30.84,0,0,2,0.00
2013-8-19,81,65,53,67,60,53,100,87,57,30.84,30.75,3,0,9,0.00
2013-8-20,86,66,50,68,60,50,100,83,50,30.88,30.78,4,0,13,0.00
2013-8-21,89,67,51,77,63,51,100,88,56,30.92,30.79,2,0,9,0.00
2013-8-22,88,71,56,80,68,56,100,89,57,30.81,30.60,3,0,12,0.00
2013-8-23,81,66,52,68,60,52,100,83,54,30.89,30.64,6,1,15,0.00
2013-8-24,83,63,44,65,55,44,100,78,47,31.07,30.89,5,0,13,0.00
2013-8-25,86,62,46,69,56,45,100,82,43,31.10,30.90,2,0,7,0.00
2013-8-26,76,66,59,73,65,57,100,96,79,30.92,30.63,3,0,10,0.08
2013-8-27,86,69,60,75,67,59,100,94,65,30.67,30.57,3,0,11,0.00
2013-8-28,89,69,55,79,66,55,100,92,65,30.67,30.59,2,0,8,0.00
2013-8-29,83,67,58,76,65,57,100,95,75,30.77,30.66,2,0,6,0.00
2013-8-30,86,69,56,79,67,56,100,92,58,30.74,30.58,2,0,7,0.00
2013-8-31,88,72,64,81,70,64,100,95,70,30.59,30.51,3,0,11,0.06
2013-9-1,81,70,61,80,69,60,100,99,91,30.60,30.55,2,0,7,0.01
2013-9-2,82,70,62,81,69,61,100,98,84,30.58,30.44,2,0,13,0.65
2013-9-3,80,63,56,67,60,56,100,92,58,30.60,30.48,3,0,12,0.01
2013-9-4,83,65,54,62,58,54,100,81,47,30.69,30.60,4,1,18,0.00
2013-9-5,70,59,44,61,51,42,100,78,41,30.87,30.63,5,1,14,0.00
2013-9-6,73,52,35,55,45,35,100,83,50,30.94,30.81,1,0,7,0.00
2013-9-7,79,58,41,66,53,41,100,88,44,30.82,30.60,1,0,6,0.01
2013-9-8,71,60,45,65,54,42,100,83,45,30.81,30.53,5,1,17,0.01
2013-9-9,76,56,35,60,49,35,100,83,46,30.91,30.80,3,0,12,0.00
2013-9-10,86,70,61,81,69,60,100,96,78,30.85,30.74,3,0,14,0.14
2013-9-11,96,76,64,87,73,64,100,91,65,30.85,30.71,6,0,19,0.38
2013-9-12,88,70,62,82,68,61,100,96,77,30.72,30.43,2,0,12,0.59
2013-9-13,69,59,48,65,58,48,100,95,79,30.57,30.38,5,1,16,0.01
2013-9-14,60,50,42,51,46,41,100,89,69,30.80,30.56,5,1,14,0.00
2013-9-15,72,52,36,59,48,36,100,89,57,30.86,30.76,2,0,8,0.00
2013-9-16,64,53,43,56,51,40,99,93,74,30.95,30.74,4,1,14,0.08
2013-9-17,69,48,36,50,41,36,100,80,47,31.10,30.95,4,1,14,0.00
2013-9-18,75,51,33,58,45,33,100,84,51,31.01,30.85,1,0,6,0.00
2013-9-19,81,56,39,64,51,39,99,85,52,30.86,30.77,1,0,6,0.00
2013-9-20,51,45,42,51,44,42,99,99,99,30.79,30.76,0,0,0,0.00
2013-9-21,73,66,56,65,62,54,100,87,58,30.63,30.37,6,1,17,0.58
2013-9-22,61,53,46,57,49,40,99,86,62,30.60,30.37,6,2,21,0.09
2013-9-23,61,48,38,46,41,38,100,80,53,30.73,30.58,5,1,20,0.00
2013-9-24,71,52,40,46,41,37,100,71,33,30.73,30.60,6,1,14,0.00
2013-9-25,76,52,37,62,47,37,100,85,47,30.67,30.60,0,0,0,0.00
2013-9-26,68,51,39,60,47,39,99,89,61,30.83,30.67,0,0,0,0.00
2013-9-27,69,50,37,58,48,37,100,94,68,30.96,30.82,0,0,0,0.01
2013-9-28,77,53,37,63,47,37,100,85,44,31.03,30.94,1,0,4,0.00
2013-9-29,76,53,38,66,49,38,100,87,57,30.95,30.79,2,0,8,0.00
2013-9-30,74,47,43,60,46,43,99,96,61,30.72,30.70,0,0,0,0.00
2013-10-1,79,56,39,63,51,39,100,86,54,30.72,30.63,0,0,8,0.00
2013-10-2,78,65,50,67,59,47,100,82,61,30.74,30.64,0,0,10,0.00
2013-10-3,81,60,42,59,50,40,100,75,26,30.84,30.74,0,0,1,0.00
2013-10-4,78,61,50,71,60,49,100,96,69,30.79,30.72,0,0,2,0.22
2013-10-5,74,62,57,72,61,56,100,99,90,30.81,30.76,1,0,5,0.02
2013-10-6,68,60,57,68,59,57,99,99,99,30.82,30.74,2,0,12,0.24
2013-10-7,67,60,49,67,60,46,99,97,82,30.75,30.42,6,1,23,0.61
2013-10-8,66,51,37,48,44,37,100,78,49,31.03,30.65,0,0,2,0.05
2013-10-9,67,47,33,54,41,33,100,83,44,31.11,31.01,0,0,0,0.00
2013-10-10,59,46,35,52,41,32,99,84,37,31.01,30.85,0,0,0,0.00
2013-10-11,75,53,40,61,48,38,100,84,59,30.86,30.78,0,0,1,0.00
2013-10-12,74,53,36,59,49,35,100,89,58,31.02,30.85,0,0,1,0.00
2013-10-13,68,54,40,58,50,40,100,89,63,31.07,31.00,0,0,1,0.00
2013-10-14,69,52,37,59,48,37,100,89,61,31.02,30.91,0,0,0,0.00
2013-10-15,71,61,49,63,58,48,100,89,73,30.95,30.81,0,0,2,0.00
2013-10-16,64,55,44,58,52,44,100,92,71,30.81,30.57,0,0,8,0.00
2013-10-17,74,62,54,62,58,53,100,87,56,30.59,30.34,4,0,15,0.18
2013-10-18,64,53,38,60,47,38,100,82,47,30.64,30.33,5,1,15,0.31
2013-10-19,65,37,34,49,36,34,100,98,45,30.64,30.41,0,0,0,0.01
2013-10-20,60,47,36,49,37,33,100,71,43,30.71,30.40,1,0,11,0.01
2013-10-21,70,49,32,50,39,32,99,73,42,30.78,30.62,0,0,0,0.00
2013-10-22,60,48,34,49,42,33,100,81,59,30.62,30.42,0,0,0,0.00
2013-10-23,49,39,30,38,34,29,100,86,62,30.49,30.29,0,0,0,0.00
2013-10-24,49,38,28,36,29,25,100,72,44,30.58,30.39,0,0,0,0.01
2013-10-25,47,37,31,34,31,28,97,79,55,30.82,30.57,0,0,0,0.00
2013-10-26,53,39,26,34,28,26,100,69,41,30.79,30.49,0,0,0,0.00
2013-10-27,50,41,30,34,31,26,100,68,49,30.73,30.46,0,0,0,0.00
2013-10-28,58,39,27,39,32,26,100,77,47,30.97,30.72,0,0,0,0.00
2013-10-29,46,34,27,30,26,22,100,76,51,31.04,30.95,0,0,0,0.00
2013-10-30,58,41,30,46,38,28,100,89,61,30.95,30.83,0,0,0,0.00
2013-10-31,58,48,33,57,47,32,99,99,99,30.86,30.40,0,0,0,0.56
2013-11-1,67,57,43,61,53,42,100,88,58,30.41,30.15,0,0,0,0.77
2013-11-2,65,45,35,53,42,35,100,91,54,30.46,30.31,0,0,0,0.14
2013-11-3,43,32,25,43,29,16,100,91,69,31.05,30.45,0,0,0,0.01
2013-11-4,44,28,20,23,18,16,89,67,36,31.23,31.05,0,0,0,0.00
2013-11-5,59,40,25,40,33,20,100,78,49,31.23,31.07,0,0,0,0.00
2013-11-6,61,47,35,51,44,35,100,90,62,31.09,30.66,2,0,9,0.00
2013-11-7,55,45,34,54,44,32,100,97,91,30.66,30.45,0,0,4,0.28
2013-11-8,45,34,30,32,29,24,100,83,60,30.76,30.51,5,0,16,0.41
2013-11-9,49,36,30,34,29,26,92,77,52,30.85,30.57,0,0,0,0.00
2013-11-10,47,40,35,40,35,30,100,81,68,30.62,30.45,0,0,0,0.05
2013-11-11,53,40,33,35,29,25,93,68,45,30.77,30.57,0,0,0,0.07
2013-11-12,39,26,20,35,20,12,100,78,61,30.85,30.56,0,0,0,0.00
2013-11-13,33,23,17,19,14,12,86,70,46,30.92,30.77,0,0,0,0.00
2013-11-14,55,36,24,28,17,9,77,47,27,30.78,30.71,0,0,0,0.00
2013-11-15,62,39,25,30,21,13,72,52,25,30.86,30.75,1,0,4,0.18
2013-11-16,74,44,26,56,36,14,100,76,38,30.96,30.84,4,1,12,0.00
2013-11-17,72,50,37,63,50,32,100,99,91,30.90,30.41,4,2,24,0.30
2013-11-18,80,50,0,100,43,12,99,70,10,30.41,30.21,26,3,58,0.04
2013-11-19,51,31,17,43,24,5,88,75,63,30.95,30.40,10,5,32,0.00
2013-11-20,60,25,8,34,13,2,92,66,21,31.20,30.95,4,1,14,0.00
2013-11-21,60,31,15,40,25,-2,96,79,48,31.19,30.98,3,0,10,0.00
2013-11-22,70,44,36,58,43,31,100,99,88,30.98,30.54,6,1,27,0.07
2013-11-23,54,30,13,51,23,4,100,77,48,30.66,30.49,9,4,27,0.00
2013-11-24,34,14,0,100,4,-46,90,65,2,30.84,30.50,242,6,242,0.11
2013-11-25,32,22,12,17,11,5,85,65,37,30.97,30.82,7,2,22,0.00
2013-11-26,52,29,23,36,27,7,100,92,37,30.87,30.53,3,1,12,0.13
2013-11-27,59,36,14,53,36,10,100,98,91,30.53,30.07,9,4,26,1.74
2013-11-28,40,19,5,34,15,-4,100,83,61,31.00,30.28,11,3,27,0.00
2013-11-29,45,20,13,35,15,-4,100,82,62,31.27,30.99,4,1,14,0.00
2013-11-30,44,18,4,35,13,-1,100,81,51,31.28,30.94,5,1,18,0.00
2013-12-1,54,34,19,46,30,14,100,88,66,30.94,30.64,6,1,23,0.00
2013-12-2,52,32,18,43,32,16,100,98,86,30.64,30.52,2,0,5,0.00
2013-12-3,63,33,17,52,32,17,100,96,76,30.63,30.52,4,0,11,0.00
2013-12-4,59,31,22,53,30,12,99,95,77,30.77,30.62,3,1,6,0.01
2013-12-5,68,48,37,62,48,26,99,99,99,30.76,30.57,3,1,11,0.15
2013-12-6,62,37,19,54,36,14,100,97,82,30.78,30.53,6,2,17,0.20
2013-12-7,47,26,14,41,22,0,99,87,70,31.05,30.72,6,3,19,0.00
2013-12-8,35,21,8,32,18,5,100,89,75,31.13,30.97,3,1,11,0.00
2013-12-9,52,29,15,48,28,11,100,98,92,30.96,30.53,4,2,14,0.00
2013-12-10,45,26,18,41,24,1,100,91,73,30.61,30.44,5,1,15,0.00
2013-12-11,42,20,3,30,14,-3,93,78,59,30.78,30.60,5,2,17,0.00
2013-12-12,35,12,-2,22,6,-10,92,75,51,30.86,30.59,4,1,15,0.00
2013-12-13,39,18,3,26,11,-5,89,75,62,30.90,30.55,7,3,28,0.00
2013-12-14,28,10,0,22,8,-6,100,93,77,31.04,30.56,3,1,11,0.00
2013-12-15,44,24,11,42,22,3,100,93,78,30.55,30.17,7,2,24,0.01
2013-12-16,38,15,-1,29,8,-8,89,71,54,30.75,30.34,6,2,19,0.00
2013-12-17,35,11,-6,34,10,-8,100,96,88,30.76,30.54,3,0,8,0.00
2013-12-18,44,23,14,34,20,5,100,91,62,30.68,30.52,6,1,16,0.00
2013-12-19,58,31,17,38,25,7,100,80,56,30.72,30.56,5,1,15,0.07
2013-12-20,68,44,29,61,40,23,100,87,58,30.71,30.56,5,1,18,0.02
2013-12-21,76,52,0,100,52,35,100,94,10,30.60,30.51,46,2,24,0.11
2013-12-22,80,60,45,72,57,39,100,90,76,30.60,30.40,7,4,28,0.06
2013-12-23,58,42,28,53,41,24,100,97,83,30.77,30.58,5,2,21,0.50
2013-12-24,37,23,11,25,18,4,93,82,61,30.86,30.68,8,3,21,0.01
2013-12-25,26,13,6,10,5,2,85,72,43,31.04,30.85,7,2,24,0.00
2013-12-26,28,23,17,26,17,8,93,79,65,30.93,30.68,6,2,17,0.00
2013-12-27,32,24,17,24,20,13,100,83,65,30.86,30.80,4,1,13,0.00
2013-12-28,49,32,17,33,27,16,100,81,53,30.82,30.65,5,1,19,0.00
2013-12-29,47,35,31,40,33,27,100,94,51,30.67,30.20,5,1,14,0.53
2013-12-30,36,22,6,34,20,-23,100,90,73,30.74,30.31,27,3,27,0.07
2013-12-31,22,14,6,18,10,3,95,85,72,30.76,30.56,6,2,21,0.00
2014-1-1,24,15,9,14,9,3,100,75,51,30.92,30.75,5,1,21,0.00
2014-1-2,14,12,6,14,11,4,100,98,95,30.84,30.37,5,0,14,0.00